Commit Graph
1034 Commits
Author SHA1 Message Date
Hampus 497a494c37 vendor(livekit): await setParameters in setDegradationPreference (#2375) 2026-09-02 17:30:22 +02:00
Hampus 02069e8e5d feat(voice-engine): add a sourceLifecycle.removed event (#2374) 2026-09-02 17:30:08 +02:00
Hampus 626293392c fix(ui): let callers style the audio level meter (#2373) 2026-09-02 17:29:55 +02:00
Hampus dfe42ae3e3 feat(sound): play one-shot sounds immediately and abortably (#2372) 2026-09-02 17:29:43 +02:00
Hampus 453abfa145 fix(ui): keep context menus clear of the native titlebar (#2371) 2026-09-02 17:29:29 +02:00
Hampus 8ebc9400ce fix(permissions): gate role hierarchy on known membership (#2370) 2026-09-02 17:29:06 +02:00
Hampus 1598f48edd fix(guild): invalidate member sidebar on role changes (#2369) 2026-09-02 17:28:44 +02:00
Hampus cc92f37f0c test(app): stop reading gl calls as react hooks (#2368) 2026-09-02 17:28:32 +02:00
Hampus 9322aca6cb fix(channel): restore composer draft and message focus (#2367) 2026-09-02 17:28:19 +02:00
Hampus ee8fbd6f4f fix(ui): keep the focus ring stable across refocus (#2366) 2026-09-02 17:27:57 +02:00
Hampus 1acd61a112 fix(ui): hand tooltips over between adjacent triggers (#2365) 2026-09-02 17:27:46 +02:00
Hampus e836686a71 fix(permissions): map not-determined media status to prompt (#2364) 2026-09-02 17:27:35 +02:00
Hampus ea6c417378 fix(discovery): keep category counts when a search resolves (#2363) 2026-09-02 17:27:22 +02:00
Hampus 16cc9a9e69 fix(app): clamp persisted accessibility values (#2362) 2026-09-02 17:27:10 +02:00
Hampus 6b5316fa84 fix(desktop): return a generic clipboard copy error (#2361) 2026-09-02 17:26:57 +02:00
Hampus a53f5d1289 fix(desktop): verify privileged ipc senders (#2360) 2026-09-02 17:26:45 +02:00
Hampus de2ea99928 fix(desktop): pin outbound fetches to a validated address (#2359) 2026-09-02 17:26:32 +02:00
Hampus 25f4332b9e fix(auth): guard stale submissions and rework form error mapping (#2358) 2026-09-02 17:26:18 +02:00
Hampus f703969e80 fix(auth): require a hashed poll secret for desktop handoff (#2357) 2026-09-02 17:25:54 +02:00
Hampus b82681b77a fix(auth): revoke the parsed token on logout (#2356) 2026-09-02 17:25:33 +02:00
Hampus ef248a8515 fix(platform): parse api error responses in one place (#2355) 2026-09-02 17:25:21 +02:00
Hampus 73a2345c26 fix(app-proxy): validate config, csp sources, cap resource use (#2354) 2026-09-02 17:25:10 +02:00
Hampus 9f33177eab fix(gateway): rate limit resume like identify (#2353) 2026-09-02 17:24:58 +02:00
Hampus d5a752c338 fix(gateway): only trust the client ip header when enabled (#2352) 2026-09-02 17:24:46 +02:00
Hampus 4021a2d697 fix(gateway): bound the zstd decompression window (#2351) 2026-09-02 17:24:35 +02:00
Hampus bea4a6dcbc fix(read-state): keep a failed ack dispatch from failing acks (#2350) 2026-09-02 17:24:24 +02:00
Hampus 4f48e04cad feat(api): serve well-known discovery with etag and 304 (#2349) 2026-09-02 17:24:11 +02:00
Hampus 5719dfe8a3 fix(auth): bucket phone attempt risk by v4 and v6 subnet (#2348) 2026-09-02 17:23:58 +02:00
Hampus 4fb14e85e8 fix(auth): harden login rate keys and totp reuse (#2347) 2026-09-02 17:23:47 +02:00
Hampus 1d84689b45 fix(api): validate push and domain verification targets (#2346) 2026-09-02 17:23:34 +02:00
Hampus 693aec2b4d fix(api): trust recorded upload types and bound edit sizes (#2345) 2026-09-02 17:23:23 +02:00
Hampus c79c0ee138 fix(api): bound storage listings, ranges and search paging (#2344) 2026-09-02 17:23:12 +02:00
Hampus e86e24a2db fix(captcha): drop the body-email contact policy exemption (#2343) 2026-09-02 17:23:02 +02:00
Hampus 0f7ad484ce fix(constants): add captcha, cache and feature headers (#2342) 2026-09-02 17:22:51 +02:00
Hampus bcd95b2af9 fix(http-client): validate public addresses at connect time (#2341) 2026-09-02 17:22:37 +02:00
Hampus 32dcd5ed1c chore(i18n): resync message catalogs with source (#2340) 2026-09-02 17:22:21 +02:00
Hampus 5119febb5b fix(api): send stickers through webhooks (#2338) 2026-09-02 13:55:54 +02:00
Hampus 20cdfd3009 fix(api): stop exporting unused worker heartbeat symbols (#2334) fluxer-snowflakes@2026.901.193545 fluxer-docs@2026.901.193541 fluxer-api@2026.901.193547 fluxer-unfurl@2026.901.193543 fluxer-admin@2026.901.193529 fluxer-gateway@2026.901.193535 fluxer-static@2026.901.193534 fluxer-app-proxy@2026.901.193542 fluxer-users@2026.901.193530 fluxer-gifs@2026.901.193523 fluxer-messages@2026.901.193551 fluxer-app-proxy-self-hosted@2026.901.193541 fluxer-media-proxy@2026.901.193543 2026-09-01 21:03:26 +02:00
Hampus 9f739427c4 fix(desktop): update rtrb past the double free advisory (#2336) 2026-09-01 21:03:19 +02:00
Hampus 0201cafd7e fix(admin): mark the crate unpublished so cargo deny passes (#2335) 2026-09-01 21:03:12 +02:00
Hampus 37f57bb29f fix(desktop): restore offline Flatpak builds (#2332) fluxer-desktop-canary@2026.901.185447 2026-09-01 20:51:18 +02:00
Hampus ebd723679b docs(operator): refresh the bundle pin and tunnel setup (#2333) 2026-09-01 20:51:00 +02:00
Hampus 961fa1f007 fix(self-hosting): correct compose probes and origins (#2330) 2026-09-01 20:47:20 +02:00
Hampus 7900a4da0c feat(ci): pin releases to an immutable image set (#2327) 2026-09-01 20:47:20 +02:00
Hampus 8a24730884 fix(kv): align rust and typescript schema migration (#2328) 2026-09-01 20:47:19 +02:00
Hampus 1688e7dc50 fix(api): survive transient database errors in the worker (#2326) 2026-09-01 20:47:19 +02:00
Hampus aa267b54ec fix(api): dead-letter retired worker task types (#2323) 2026-09-01 20:47:19 +02:00
Hampus bc40073a02 fix(config): carry the public port into derived endpoints (#2329) 2026-09-01 20:47:18 +02:00
Hampus a93f9dd0af fix(app-proxy): separate readiness from liveness (#2322) 2026-09-01 20:47:18 +02:00
Hampus 53a9fdc4b6 fix(app-proxy): share one asset tree across architectures (#2325) 2026-09-01 20:47:17 +02:00